Location: Lima
(44.6384°N, 112.5920°W)
Time: 18:18:36
(UTC+00:00)

NANOSAT C BR1 - Visible Passes

Search period start: 22 April 2024 00:00
Search period end: 02 May 2024 00:00
Orbit: 556 x 566 km, 98.1° (Epoch: 21 April)

Date Brightness Start Highest point End Pass type
(mag) Time Alt. Az. Time Alt. Az. Time Alt. Az.
22 Apr ? 10:19:23 10° NE 10:21:49 15° E 10:24:14 10° SE visible
22 Apr ? 11:53:06 10° N 11:56:58 46° WNW 12:00:50 10° SW visible
23 Apr ? 10:18:33 10° NE 10:20:55 15° E 10:23:16 10° SE visible
23 Apr ? 11:52:11 10° N 11:56:04 47° WNW 11:59:56 10° SW visible
24 Apr ? 10:17:41 10° ENE 10:19:57 15° E 10:22:13 10° SE visible
24 Apr ? 11:51:14 10° N 11:55:08 49° WNW 11:59:01 10° SSW visible
25 Apr ? 10:16:46 10° ENE 10:18:57 14° E 10:21:08 10° SE visible
25 Apr ? 11:50:13 10° N 11:54:08 50° WNW 11:58:02 10° SSW visible
26 Apr ? 10:15:49 10° ENE 10:17:54 14° E 10:19:58 10° ESE visible
26 Apr ? 11:49:10 10° N 11:53:06 52° WNW 11:57:01 10° SSW visible
27 Apr ? 10:14:50 10° ENE 10:16:49 13° E 10:18:46 10° ESE visible
27 Apr ? 11:48:04 10° N 11:52:01 54° WNW 11:55:57 10° SSW visible
28 Apr ? 10:13:49 10° ENE 10:15:40 13° E 10:17:30 10° ESE visible
28 Apr ? 11:46:56 10° N 11:50:54 56° WNW 11:54:50 10° SSW visible
29 Apr ? 10:12:46 10° ENE 10:14:28 12° E 10:16:11 10° ESE visible
29 Apr ? 11:45:45 10° N 11:49:43 58° WNW 11:53:41 10° SSW visible
30 Apr ? 10:11:42 10° ENE 10:13:15 12° E 10:14:47 10° ESE visible
30 Apr ? 11:44:31 10° N 11:48:31 60° WNW 11:52:28 10° SSW visible
01 May ? 10:10:36 10° ENE 10:11:58 11° E 10:13:18 10° ESE visible
01 May ? 11:43:15 10° N 11:47:15 63° WNW 11:51:13 10° SSW visible
